Year,Month,Day,Hour,Minute,Value (Times are PST for temperature in C)
2015,02,23,00,00,6.70
2015,02,23,00,01,6.70
2015,02,23,00,02,6.70
2015,02,23,00,03,6.70
2015,02,23,00,04,6.70
2015,02,23,00,05,6.80
2015,02,23,00,06,6.80
2015,02,23,00,07,6.80
2015,02,23,00,08,6.80
2015,02,23,00,09,6.70
2015,02,23,00,10,6.70
2015,02,23,00,11,6.70
2015,02,23,00,12,6.70
2015,02,23,00,13,6.70
2015,02,23,00,14,6.70
2015,02,23,00,15,6.70
2015,02,23,00,16,6.70
2015,02,23,00,17,6.70
2015,02,23,00,18,6.70
2015,02,23,00,19,6.70
2015,02,23,00,20,6.60
2015,02,23,00,21,6.60
2015,02,23,00,22,6.60
2015,02,23,00,23,6.60
2015,02,23,00,24,6.60
2015,02,23,00,25,6.60
2015,02,23,00,26,6.60
2015,02,23,00,27,6.60
2015,02,23,00,28,6.60
2015,02,23,00,29,6.70
2015,02,23,00,30,6.70
2015,02,23,00,31,6.70
2015,02,23,00,32,6.70
2015,02,23,00,33,6.70
2015,02,23,00,34,6.70
2015,02,23,00,35,6.70
2015,02,23,00,36,6.70
2015,02,23,00,37,6.70
2015,02,23,00,38,6.70
2015,02,23,00,39,6.70
2015,02,23,00,40,6.70
2015,02,23,00,41,6.70
2015,02,23,00,42,6.70
2015,02,23,00,43,6.60
2015,02,23,00,44,6.60
2015,02,23,00,45,6.60
2015,02,23,00,46,6.60
2015,02,23,00,47,6.60
2015,02,23,00,48,6.60
2015,02,23,00,49,6.60
2015,02,23,00,50,6.50
2015,02,23,00,51,6.50
2015,02,23,00,52,6.50
2015,02,23,00,53,6.40
2015,02,23,00,54,6.40
2015,02,23,00,55,6.40
2015,02,23,00,56,6.40
2015,02,23,00,57,6.40
2015,02,23,00,58,6.40
2015,02,23,00,59,6.40
2015,02,23,01,00,6.40
2015,02,23,01,01,6.30
2015,02,23,01,02,6.30
2015,02,23,01,03,6.30
2015,02,23,01,04,6.30
2015,02,23,01,05,6.30
2015,02,23,01,06,6.30
2015,02,23,01,07,6.30
2015,02,23,01,08,6.30
2015,02,23,01,09,6.30
2015,02,23,01,10,6.30
2015,02,23,01,11,6.30
2015,02,23,01,12,6.30
2015,02,23,01,13,6.30
2015,02,23,01,14,6.30
2015,02,23,01,15,6.30
2015,02,23,01,16,6.30
2015,02,23,01,17,6.30
2015,02,23,01,18,6.30
2015,02,23,01,19,6.30
2015,02,23,01,20,6.30
2015,02,23,01,21,6.30
2015,02,23,01,22,6.20
2015,02,23,01,23,6.20
2015,02,23,01,24,6.20
2015,02,23,01,25,6.20
2015,02,23,01,26,6.20
2015,02,23,01,27,6.20
2015,02,23,01,28,6.10
2015,02,23,01,29,6.10
2015,02,23,01,30,6.10
2015,02,23,01,31,6.10
2015,02,23,01,32,6.10
2015,02,23,01,33,6.10
2015,02,23,01,34,6.10
2015,02,23,01,35,6.10
2015,02,23,01,36,6.10
2015,02,23,01,37,6.10
2015,02,23,01,38,6.10
2015,02,23,01,39,6.10
2015,02,23,01,40,6.10
2015,02,23,01,41,6.10
2015,02,23,01,42,6.20
2015,02,23,01,43,6.20
2015,02,23,01,44,6.20
2015,02,23,01,45,6.20
2015,02,23,01,46,6.20
2015,02,23,01,47,6.20
2015,02,23,01,48,6.20
2015,02,23,01,49,6.20
2015,02,23,01,50,6.20
2015,02,23,01,51,6.20
2015,02,23,01,52,6.20
2015,02,23,01,53,6.20
2015,02,23,01,54,6.20
2015,02,23,01,55,6.20
2015,02,23,01,56,6.20
2015,02,23,01,57,6.20
2015,02,23,01,58,6.20
2015,02,23,01,59,6.10
2015,02,23,02,00,6.10
2015,02,23,02,01,6.10
2015,02,23,02,02,6.00
2015,02,23,02,03,6.00
2015,02,23,02,04,6.00
2015,02,23,02,05,6.00
2015,02,23,02,06,6.00
2015,02,23,02,07,6.00
2015,02,23,02,08,6.00
2015,02,23,02,09,6.00
2015,02,23,02,10,6.00
2015,02,23,02,11,6.00
2015,02,23,02,12,6.00
2015,02,23,02,13,6.00
2015,02,23,02,14,6.10
2015,02,23,02,15,6.10
2015,02,23,02,16,6.20
2015,02,23,02,17,6.20
2015,02,23,02,18,6.20
2015,02,23,02,19,6.20
2015,02,23,02,20,6.10
2015,02,23,02,21,6.10
2015,02,23,02,22,6.10
2015,02,23,02,23,6.10
2015,02,23,02,24,6.10
2015,02,23,02,25,6.10
2015,02,23,02,26,6.20
2015,02,23,02,27,6.20
2015,02,23,02,28,6.20
2015,02,23,02,29,6.20
2015,02,23,02,30,6.20
2015,02,23,02,31,6.20
2015,02,23,02,32,6.20
2015,02,23,02,33,6.20
2015,02,23,02,34,6.20
2015,02,23,02,35,6.30
2015,02,23,02,36,6.30
2015,02,23,02,37,6.30
2015,02,23,02,38,6.30
2015,02,23,02,39,6.30
2015,02,23,02,40,6.40
2015,02,23,02,41,6.40
2015,02,23,02,42,6.40
2015,02,23,02,43,6.40
2015,02,23,02,44,6.40
2015,02,23,02,45,6.40
2015,02,23,02,46,6.40
2015,02,23,02,47,6.40
2015,02,23,02,48,6.40
2015,02,23,02,49,6.40
2015,02,23,02,50,6.40
2015,02,23,02,51,6.40
2015,02,23,02,52,6.40
2015,02,23,02,53,6.40
2015,02,23,02,54,6.40
2015,02,23,02,55,6.30
2015,02,23,02,56,6.30
2015,02,23,02,57,6.30
2015,02,23,02,58,6.30
2015,02,23,02,59,6.30
2015,02,23,03,00,6.40
2015,02,23,03,01,6.40
2015,02,23,03,02,6.40
2015,02,23,03,03,6.30
2015,02,23,03,04,6.30
2015,02,23,03,05,6.30
2015,02,23,03,06,6.30
2015,02,23,03,07,6.30
2015,02,23,03,08,6.30
2015,02,23,03,09,6.30
2015,02,23,03,10,6.30
2015,02,23,03,11,6.30
2015,02,23,03,12,6.30
2015,02,23,03,13,6.30
2015,02,23,03,14,6.30
2015,02,23,03,15,6.30
2015,02,23,03,16,6.30
2015,02,23,03,17,6.30
2015,02,23,03,18,6.30
2015,02,23,03,19,6.30
2015,02,23,03,20,6.30
2015,02,23,03,21,6.30
2015,02,23,03,22,6.20
2015,02,23,03,23,6.20
2015,02,23,03,24,6.20
2015,02,23,03,25,6.20
2015,02,23,03,26,6.20
2015,02,23,03,27,6.20
2015,02,23,03,28,6.20
2015,02,23,03,29,6.20
2015,02,23,03,30,6.20
2015,02,23,03,31,6.20
2015,02,23,03,32,6.20
2015,02,23,03,33,6.20
2015,02,23,03,34,6.20
2015,02,23,03,35,6.20
2015,02,23,03,36,6.20
2015,02,23,03,37,6.20
2015,02,23,03,38,6.20
2015,02,23,03,39,6.20
2015,02,23,03,40,6.20
2015,02,23,03,41,6.30
2015,02,23,03,42,6.30
2015,02,23,03,43,6.30
2015,02,23,03,44,6.30
2015,02,23,03,45,6.30
2015,02,23,03,46,6.30
2015,02,23,03,47,6.30
2015,02,23,03,48,6.30
2015,02,23,03,49,6.30
2015,02,23,03,50,6.30
2015,02,23,03,51,6.30
2015,02,23,03,52,6.30
2015,02,23,03,53,6.30
2015,02,23,03,54,6.30
2015,02,23,03,55,6.30
2015,02,23,03,56,6.30
2015,02,23,03,57,6.30
2015,02,23,03,58,6.30
2015,02,23,03,59,6.30
2015,02,23,04,00,6.30
2015,02,23,04,01,6.30
2015,02,23,04,02,6.30
2015,02,23,04,03,6.30
2015,02,23,04,04,6.30
2015,02,23,04,05,6.30
2015,02,23,04,06,6.30
2015,02,23,04,07,6.30
2015,02,23,04,08,6.30
2015,02,23,04,09,6.20
2015,02,23,04,10,6.30
2015,02,23,04,11,6.30
2015,02,23,04,12,6.30
2015,02,23,04,13,6.30
2015,02,23,04,14,6.30
2015,02,23,04,15,6.20
2015,02,23,04,16,6.20
2015,02,23,04,17,6.20
2015,02,23,04,18,6.30
2015,02,23,04,19,6.20
2015,02,23,04,20,6.20
2015,02,23,04,21,6.20
2015,02,23,04,22,6.20
2015,02,23,04,23,6.20
2015,02,23,04,24,6.20
2015,02,23,04,25,6.20
2015,02,23,04,26,6.20
2015,02,23,04,27,6.20
2015,02,23,04,28,6.10
2015,02,23,04,29,6.10
2015,02,23,04,30,6.10
2015,02,23,04,31,6.10
2015,02,23,04,32,6.10
2015,02,23,04,33,6.10
2015,02,23,04,34,6.00
2015,02,23,04,35,6.00
2015,02,23,04,36,6.00
2015,02,23,04,37,6.00
2015,02,23,04,38,6.00
2015,02,23,04,39,6.00
2015,02,23,04,40,5.90
2015,02,23,04,41,5.90
2015,02,23,04,42,6.00
2015,02,23,04,43,6.00
2015,02,23,04,44,6.00
2015,02,23,04,45,6.00
2015,02,23,04,46,6.00
2015,02,23,04,47,6.00
2015,02,23,04,48,6.00
2015,02,23,04,49,6.00
2015,02,23,04,50,6.00
2015,02,23,04,51,6.00
2015,02,23,04,52,6.00
2015,02,23,04,53,6.00
2015,02,23,04,54,6.00
2015,02,23,04,55,6.00
2015,02,23,04,56,6.00
2015,02,23,04,57,6.00
2015,02,23,04,58,6.00
2015,02,23,04,59,5.90
2015,02,23,05,00,5.90
2015,02,23,05,01,5.90
2015,02,23,05,02,5.90
2015,02,23,05,03,5.90
2015,02,23,05,04,5.90
2015,02,23,05,05,5.90
2015,02,23,05,06,5.90
2015,02,23,05,07,5.90
2015,02,23,05,08,5.90
2015,02,23,05,09,6.00
2015,02,23,05,10,6.00
2015,02,23,05,11,5.90
2015,02,23,05,12,5.90
2015,02,23,05,13,5.90
2015,02,23,05,14,5.90
2015,02,23,05,15,5.90
2015,02,23,05,16,5.90
2015,02,23,05,17,5.90
2015,02,23,05,18,5.90
2015,02,23,05,19,5.90
2015,02,23,05,20,5.90
2015,02,23,05,21,5.90
2015,02,23,05,22,5.90
2015,02,23,05,23,5.90
2015,02,23,05,24,5.90
2015,02,23,05,25,5.90
2015,02,23,05,26,5.90
2015,02,23,05,27,5.90
2015,02,23,05,28,5.90
2015,02,23,05,29,5.90
2015,02,23,05,30,5.90
2015,02,23,05,31,5.90
2015,02,23,05,32,5.90
2015,02,23,05,33,5.90
2015,02,23,05,34,5.90
2015,02,23,05,35,5.90
2015,02,23,05,36,5.90
2015,02,23,05,37,5.90
2015,02,23,05,38,5.90
2015,02,23,05,39,5.90
2015,02,23,05,40,6.00
2015,02,23,05,41,6.00
2015,02,23,05,42,6.00
2015,02,23,05,43,6.00
2015,02,23,05,44,6.00
2015,02,23,05,45,6.00
2015,02,23,05,46,6.00
2015,02,23,05,47,6.00
2015,02,23,05,48,5.90
2015,02,23,05,49,5.90
2015,02,23,05,50,5.90
2015,02,23,05,51,5.90
2015,02,23,05,52,5.90
2015,02,23,05,53,5.90
2015,02,23,05,54,5.90
2015,02,23,05,55,5.90
2015,02,23,05,56,5.90
2015,02,23,05,57,5.90
2015,02,23,05,58,5.90
2015,02,23,05,59,5.80
2015,02,23,06,00,5.80
2015,02,23,06,01,5.80
2015,02,23,06,02,5.80
2015,02,23,06,03,5.80
2015,02,23,06,04,5.80
2015,02,23,06,05,5.90
2015,02,23,06,06,5.90
2015,02,23,06,07,5.90
2015,02,23,06,08,5.90
2015,02,23,06,09,5.80
2015,02,23,06,10,5.80
2015,02,23,06,11,5.80
2015,02,23,06,12,5.80
2015,02,23,06,13,5.80
2015,02,23,06,14,5.80
2015,02,23,06,15,5.80
2015,02,23,06,16,5.80
2015,02,23,06,17,5.80
2015,02,23,06,18,5.80
2015,02,23,06,19,5.80
2015,02,23,06,20,5.80
2015,02,23,06,21,5.80
2015,02,23,06,22,5.80
2015,02,23,06,23,5.70
2015,02,23,06,24,5.70
2015,02,23,06,25,5.70
2015,02,23,06,26,5.70
2015,02,23,06,27,5.70
2015,02,23,06,28,5.70
2015,02,23,06,29,5.60
2015,02,23,06,30,5.60
2015,02,23,06,31,5.60
2015,02,23,06,32,5.60
2015,02,23,06,33,5.50
2015,02,23,06,34,5.50
2015,02,23,06,35,5.40
2015,02,23,06,36,5.40
2015,02,23,06,37,5.40
2015,02,23,06,38,5.40
2015,02,23,06,39,5.40
2015,02,23,06,40,5.40
2015,02,23,06,41,5.40
2015,02,23,06,42,5.40
2015,02,23,06,43,5.40
2015,02,23,06,44,5.50
2015,02,23,06,45,5.50
2015,02,23,06,46,5.50
2015,02,23,06,47,5.50
2015,02,23,06,48,5.50
2015,02,23,06,49,5.50
2015,02,23,06,50,5.50
2015,02,23,06,51,5.50
2015,02,23,06,52,5.50
2015,02,23,06,53,5.50
2015,02,23,06,54,5.50
2015,02,23,06,55,5.50
2015,02,23,06,56,5.50
2015,02,23,06,57,5.50
2015,02,23,06,58,5.50
2015,02,23,06,59,5.50
2015,02,23,07,00,5.50
2015,02,23,07,01,5.40
2015,02,23,07,02,5.40
2015,02,23,07,03,5.40
2015,02,23,07,04,5.40
2015,02,23,07,05,5.30
2015,02,23,07,06,5.30
2015,02,23,07,07,5.30
2015,02,23,07,08,5.30
2015,02,23,07,09,5.30
2015,02,23,07,10,5.30
2015,02,23,07,11,5.30
2015,02,23,07,12,5.20
2015,02,23,07,13,5.20
2015,02,23,07,14,5.30
2015,02,23,07,15,5.30
2015,02,23,07,16,5.30
2015,02,23,07,17,5.30
2015,02,23,07,18,5.30
2015,02,23,07,19,5.30
2015,02,23,07,20,5.20
2015,02,23,07,21,5.20
2015,02,23,07,22,5.20
2015,02,23,07,23,5.10
2015,02,23,07,24,5.10
2015,02,23,07,25,5.10
2015,02,23,07,26,5.10
2015,02,23,07,27,5.10
2015,02,23,07,28,5.10
2015,02,23,07,29,5.20
2015,02,23,07,30,5.20
2015,02,23,07,31,5.20
2015,02,23,07,32,5.20
2015,02,23,07,33,5.20
2015,02,23,07,34,5.20
2015,02,23,07,35,5.20
2015,02,23,07,36,5.30
2015,02,23,07,37,5.30
2015,02,23,07,38,5.30
2015,02,23,07,39,5.30
2015,02,23,07,40,5.30
2015,02,23,07,41,5.30
2015,02,23,07,42,5.30
2015,02,23,07,43,5.30
2015,02,23,07,44,5.30
2015,02,23,07,45,5.40
2015,02,23,07,46,5.40
2015,02,23,07,47,5.40
2015,02,23,07,48,5.40
2015,02,23,07,49,5.40
2015,02,23,07,50,5.40
2015,02,23,07,51,5.40
2015,02,23,07,52,5.40
2015,02,23,07,53,5.40
2015,02,23,07,54,5.40
2015,02,23,07,55,5.40
2015,02,23,07,56,5.40
2015,02,23,07,57,5.40
2015,02,23,07,58,5.50
2015,02,23,07,59,5.50
2015,02,23,08,00,5.50
2015,02,23,08,01,5.50
2015,02,23,08,02,5.60
2015,02,23,08,03,5.60
2015,02,23,08,04,5.60
2015,02,23,08,05,5.60
2015,02,23,08,06,5.60
2015,02,23,08,07,5.60
2015,02,23,08,08,5.70
2015,02,23,08,09,5.70
2015,02,23,08,10,5.70
2015,02,23,08,11,5.70
2015,02,23,08,12,5.70
2015,02,23,08,13,5.70
2015,02,23,08,14,5.70
2015,02,23,08,15,5.70
2015,02,23,08,16,5.70
2015,02,23,08,17,5.80
2015,02,23,08,18,5.80
2015,02,23,08,19,5.80
2015,02,23,08,20,5.80
2015,02,23,08,21,5.90
2015,02,23,08,22,5.90
2015,02,23,08,23,5.90
2015,02,23,08,24,5.90
2015,02,23,08,25,6.00
2015,02,23,08,26,6.00
2015,02,23,08,27,6.10
2015,02,23,08,28,6.10
2015,02,23,08,29,6.10
2015,02,23,08,30,6.10
2015,02,23,08,31,6.10
2015,02,23,08,32,6.10
2015,02,23,08,33,6.10
2015,02,23,08,34,6.10
2015,02,23,08,35,6.10
2015,02,23,08,36,6.10
2015,02,23,08,37,6.10
2015,02,23,08,38,6.10
2015,02,23,08,39,6.20
2015,02,23,08,40,6.20
2015,02,23,08,41,6.20
2015,02,23,08,42,6.20
2015,02,23,08,43,6.20
2015,02,23,08,44,6.20
2015,02,23,08,45,6.20
2015,02,23,08,46,6.20
2015,02,23,08,47,6.30
2015,02,23,08,48,6.30
2015,02,23,08,49,6.30
2015,02,23,08,50,6.30
2015,02,23,08,51,6.30
2015,02,23,08,52,6.30
2015,02,23,08,53,6.30
2015,02,23,08,54,6.30
2015,02,23,08,55,6.30
2015,02,23,08,56,6.30
2015,02,23,08,57,6.30
2015,02,23,08,58,6.40
2015,02,23,08,59,6.30
2015,02,23,09,00,6.30
2015,02,23,09,01,6.30
2015,02,23,09,02,6.30
2015,02,23,09,03,6.40
2015,02,23,09,04,6.30
2015,02,23,09,05,6.40
2015,02,23,09,06,6.40
2015,02,23,09,07,6.40
2015,02,23,09,08,6.40
2015,02,23,09,09,6.40
2015,02,23,09,10,6.40
2015,02,23,09,11,6.40
2015,02,23,09,12,6.40
2015,02,23,09,13,6.40
2015,02,23,09,14,6.40
2015,02,23,09,15,6.40
2015,02,23,09,16,6.50
2015,02,23,09,17,6.50
2015,02,23,09,18,6.50
2015,02,23,09,19,6.50
2015,02,23,09,20,6.50
2015,02,23,09,21,6.50
2015,02,23,09,22,6.50
2015,02,23,09,23,6.50
2015,02,23,09,24,6.60
2015,02,23,09,25,6.60
2015,02,23,09,26,6.60
2015,02,23,09,27,6.60
2015,02,23,09,28,6.60
2015,02,23,09,29,6.60
2015,02,23,09,30,6.60
2015,02,23,09,31,6.60
2015,02,23,09,32,6.60
2015,02,23,09,33,6.60
2015,02,23,09,34,6.60
2015,02,23,09,35,6.60
2015,02,23,09,36,6.60
2015,02,23,09,37,6.60
2015,02,23,09,38,6.60
2015,02,23,09,39,6.60
2015,02,23,09,40,6.60
2015,02,23,09,41,6.60
2015,02,23,09,42,6.60
2015,02,23,09,43,6.60
2015,02,23,09,44,6.60
2015,02,23,09,45,6.60
2015,02,23,09,46,6.60
2015,02,23,09,47,6.80
2015,02,23,09,48,6.80
2015,02,23,09,49,6.80
2015,02,23,09,50,6.80
2015,02,23,09,51,6.80
2015,02,23,09,52,6.80
2015,02,23,09,53,6.80
2015,02,23,09,54,6.80
2015,02,23,09,55,6.80
2015,02,23,09,56,6.80
2015,02,23,09,57,6.80
2015,02,23,09,58,6.80
2015,02,23,09,59,6.80
2015,02,23,10,00,6.90
2015,02,23,10,01,6.90
2015,02,23,10,02,6.90
2015,02,23,10,03,6.90
2015,02,23,10,04,7.00
2015,02,23,10,05,7.00
2015,02,23,10,06,7.00
2015,02,23,10,07,7.00
2015,02,23,10,08,7.00
2015,02,23,10,09,7.00
2015,02,23,10,10,7.00
2015,02,23,10,11,7.00
2015,02,23,10,12,7.00
2015,02,23,10,13,7.00
2015,02,23,10,14,7.00
2015,02,23,10,15,6.90
2015,02,23,10,16,6.90
2015,02,23,10,17,6.90
2015,02,23,10,18,6.90
2015,02,23,10,19,6.90
2015,02,23,10,20,6.90
2015,02,23,10,21,6.90
2015,02,23,10,22,6.90
2015,02,23,10,23,6.90
2015,02,23,10,24,7.00
2015,02,23,10,25,7.00
2015,02,23,10,26,7.10
2015,02,23,10,27,7.10
2015,02,23,10,28,7.10
2015,02,23,10,29,7.10
2015,02,23,10,30,7.10
2015,02,23,10,31,7.10
2015,02,23,10,32,7.10
2015,02,23,10,33,7.10
2015,02,23,10,34,7.10
2015,02,23,10,35,7.10
2015,02,23,10,36,7.10
2015,02,23,10,37,7.10
2015,02,23,10,38,7.10
2015,02,23,10,39,7.10
2015,02,23,10,40,7.10
2015,02,23,10,41,7.10
2015,02,23,10,42,7.10
2015,02,23,10,43,7.10
2015,02,23,10,44,7.10
2015,02,23,10,45,7.10
2015,02,23,12,10,7.30
2015,02,23,12,11,7.30
2015,02,23,12,12,7.30
2015,02,23,12,13,7.30
2015,02,23,12,14,7.30
2015,02,23,12,15,7.40
2015,02,23,12,16,7.40
2015,02,23,12,17,7.40
2015,02,23,12,18,7.40
2015,02,23,12,19,7.40
2015,02,23,12,20,7.40
2015,02,23,12,21,7.50
2015,02,23,12,22,7.50
2015,02,23,12,23,7.50
2015,02,23,12,24,7.60
2015,02,23,12,25,7.60
2015,02,23,12,26,7.60
2015,02,23,12,27,7.60
2015,02,23,12,28,7.60
2015,02,23,12,29,7.60
2015,02,23,12,30,7.70
2015,02,23,12,31,7.70
2015,02,23,12,32,7.70
2015,02,23,12,33,7.80
2015,02,23,12,34,7.80
2015,02,23,12,35,7.80
2015,02,23,12,36,7.80
2015,02,23,12,37,7.90
2015,02,23,12,38,7.90
2015,02,23,12,39,7.90
2015,02,23,12,40,7.90
2015,02,23,12,41,7.90
2015,02,23,12,42,7.90
2015,02,23,12,43,7.80
2015,02,23,12,44,7.80
2015,02,23,12,45,7.80
2015,02,23,12,46,7.80
2015,02,23,12,47,7.80
2015,02,23,12,48,7.80
2015,02,23,12,49,7.80
2015,02,23,12,50,7.70
2015,02,23,12,51,7.70
2015,02,23,12,52,7.60
2015,02,23,12,53,7.60
2015,02,23,12,54,7.60
2015,02,23,12,55,7.60
2015,02,23,12,56,7.60
2015,02,23,12,57,7.50
2015,02,23,12,58,7.50
2015,02,23,12,59,7.50
2015,02,23,13,00,7.50
2015,02,23,13,01,7.50
2015,02,23,13,02,7.50
2015,02,23,13,03,7.50
2015,02,23,13,04,7.60
2015,02,23,13,05,7.60
2015,02,23,13,06,7.60
2015,02,23,13,07,7.60
2015,02,23,13,08,7.50
2015,02,23,13,09,7.50
2015,02,23,13,10,7.60
2015,02,23,13,11,7.60
2015,02,23,13,12,7.60
2015,02,23,13,13,7.60
2015,02,23,13,14,7.60
2015,02,23,13,15,7.60
2015,02,23,13,16,7.60
2015,02,23,13,17,7.60
2015,02,23,13,18,7.60
2015,02,23,13,19,7.60
2015,02,23,13,20,7.60
2015,02,23,13,21,7.60
2015,02,23,13,22,7.60
2015,02,23,13,23,7.60
2015,02,23,13,24,7.60
2015,02,23,13,25,7.60
2015,02,23,13,26,7.60
2015,02,23,13,27,7.60
2015,02,23,13,28,7.60
2015,02,23,13,29,7.60
2015,02,23,13,30,7.60
2015,02,23,13,31,7.70
2015,02,23,13,32,7.70
2015,02,23,13,33,7.70
2015,02,23,13,34,7.70
2015,02,23,13,35,7.70
2015,02,23,13,36,7.60
2015,02,23,13,37,7.60
2015,02,23,13,38,7.60
2015,02,23,13,39,7.70
2015,02,23,13,40,7.70
2015,02,23,13,41,7.70
2015,02,23,13,42,7.70
2015,02,23,13,43,7.70
2015,02,23,13,44,7.70
2015,02,23,13,45,7.70
2015,02,23,13,46,7.70
2015,02,23,13,47,7.70
2015,02,23,13,48,7.70
2015,02,23,13,49,7.70
2015,02,23,13,50,7.80
2015,02,23,13,51,7.70
2015,02,23,13,52,7.70
2015,02,23,13,53,7.70
2015,02,23,13,54,7.70
2015,02,23,13,55,7.70
2015,02,23,13,56,7.70
2015,02,23,13,57,7.70
2015,02,23,13,58,7.70
2015,02,23,13,59,7.70
2015,02,23,14,00,7.70
2015,02,23,14,01,7.80
2015,02,23,14,02,7.80
2015,02,23,14,03,7.80
2015,02,23,14,04,7.80
2015,02,23,14,05,7.90
2015,02,23,14,06,7.90
2015,02,23,14,07,7.90
2015,02,23,14,08,8.00
2015,02,23,14,09,8.00
2015,02,23,14,10,8.10
2015,02,23,14,11,8.10
2015,02,23,14,12,8.10
2015,02,23,14,13,8.10
2015,02,23,14,14,8.10
2015,02,23,14,15,8.10
2015,02,23,14,16,8.10
2015,02,23,14,17,8.10
2015,02,23,14,18,8.20
2015,02,23,14,19,8.20
2015,02,23,14,20,8.20
2015,02,23,14,21,8.20
2015,02,23,14,22,8.20
2015,02,23,14,23,8.30
2015,02,23,14,24,8.30
2015,02,23,14,25,8.40
2015,02,23,14,26,8.40
2015,02,23,14,27,8.50
2015,02,23,14,28,8.50
2015,02,23,14,29,8.50
2015,02,23,14,30,8.50
2015,02,23,14,31,8.50
2015,02,23,14,32,8.50
2015,02,23,14,33,8.50
2015,02,23,14,34,8.50
2015,02,23,14,35,8.40
2015,02,23,14,36,8.40
2015,02,23,14,37,8.40
2015,02,23,14,38,8.50
2015,02,23,14,39,8.50
2015,02,23,14,40,8.60
2015,02,23,14,41,8.60
2015,02,23,14,42,8.60
2015,02,23,14,43,8.60
2015,02,23,14,44,8.60
2015,02,23,14,45,8.60
2015,02,23,14,46,8.70
2015,02,23,14,47,8.70
2015,02,23,14,48,8.70
2015,02,23,14,49,8.70
2015,02,23,14,50,8.70
2015,02,23,14,51,8.80
2015,02,23,14,52,8.80
2015,02,23,14,53,8.80
2015,02,23,14,54,8.80
2015,02,23,14,55,8.80
2015,02,23,14,56,8.80
2015,02,23,14,57,8.80
2015,02,23,14,58,8.80
2015,02,23,14,59,8.80
2015,02,23,15,00,8.80
2015,02,23,15,01,8.80
2015,02,23,15,02,8.80
2015,02,23,15,03,8.80
2015,02,23,15,04,8.80
2015,02,23,15,05,8.80
2015,02,23,15,06,8.90
2015,02,23,15,07,8.90
2015,02,23,15,08,8.90
2015,02,23,15,09,8.90
2015,02,23,15,10,8.90
2015,02,23,15,11,8.90
2015,02,23,15,12,8.90
2015,02,23,15,13,8.90
2015,02,23,15,14,8.80
2015,02,23,15,15,8.80
2015,02,23,15,16,8.80
2015,02,23,15,17,8.80
2015,02,23,15,18,8.80
2015,02,23,15,19,8.80
2015,02,23,15,20,8.80
2015,02,23,15,21,8.80
2015,02,23,15,22,8.90
2015,02,23,15,23,8.90
2015,02,23,15,24,8.90
2015,02,23,15,25,9.00
2015,02,23,15,26,9.00
2015,02,23,15,27,9.10
2015,02,23,15,28,9.10
2015,02,23,15,29,9.10
2015,02,23,15,30,9.20
2015,02,23,15,31,9.20
2015,02,23,15,32,9.30
2015,02,23,15,33,9.30
2015,02,23,15,34,9.40
2015,02,23,15,35,9.50
2015,02,23,15,36,9.60
2015,02,23,15,37,9.60
2015,02,23,15,38,9.70
2015,02,23,15,39,9.70
2015,02,23,15,40,9.80
2015,02,23,15,41,9.80
2015,02,23,15,42,9.80
2015,02,23,15,43,9.90
2015,02,23,15,44,10.00
2015,02,23,15,45,10.00
2015,02,23,15,46,10.00
2015,02,23,15,47,10.10
2015,02,23,15,48,10.10
2015,02,23,15,49,10.00
2015,02,23,15,50,10.00
2015,02,23,15,51,10.00
2015,02,23,15,52,10.00
2015,02,23,15,53,10.00
2015,02,23,15,54,10.10
2015,02,23,15,55,10.10
2015,02,23,15,56,10.10
2015,02,23,15,57,10.10
2015,02,23,15,58,10.10
2015,02,23,15,59,10.10
2015,02,23,16,00,10.10
2015,02,23,16,01,10.20
2015,02,23,16,02,10.20
2015,02,23,16,03,10.20
2015,02,23,16,04,10.20
2015,02,23,16,05,10.20
2015,02,23,16,06,10.20
2015,02,23,16,07,10.10
2015,02,23,16,08,10.10
2015,02,23,16,09,10.00
2015,02,23,16,10,10.00
2015,02,23,16,11,9.90
2015,02,23,16,12,9.90
2015,02,23,16,13,9.90
2015,02,23,16,14,9.80
2015,02,23,16,15,9.70
2015,02,23,16,16,9.60
2015,02,23,16,17,9.50
2015,02,23,16,18,9.50
2015,02,23,16,19,9.40
2015,02,23,16,20,9.50
2015,02,23,16,21,9.40
2015,02,23,16,22,9.40
2015,02,23,16,23,9.30
2015,02,23,16,24,9.30
2015,02,23,16,25,9.20
2015,02,23,16,26,9.20
2015,02,23,16,27,9.20
2015,02,23,16,28,9.20
2015,02,23,16,29,9.20
2015,02,23,16,30,9.20
2015,02,23,16,31,9.20
2015,02,23,16,32,9.20
2015,02,23,16,33,9.20
2015,02,23,16,34,9.10
2015,02,23,16,35,9.10
2015,02,23,16,36,9.10
2015,02,23,16,37,9.10
2015,02,23,16,38,9.10
2015,02,23,16,39,9.00
2015,02,23,16,40,9.00
2015,02,23,16,41,8.90
2015,02,23,16,42,8.90
2015,02,23,16,43,8.90
2015,02,23,16,44,8.90
2015,02,23,16,45,8.90
2015,02,23,16,46,8.80
2015,02,23,16,47,8.80
2015,02,23,16,48,8.80
2015,02,23,16,49,8.80
2015,02,23,16,50,8.80
2015,02,23,16,51,8.80
2015,02,23,16,52,8.80
2015,02,23,16,53,8.80
2015,02,23,16,54,8.70
2015,02,23,16,55,8.70
2015,02,23,16,56,8.70
2015,02,23,16,57,8.70
2015,02,23,16,58,8.70
2015,02,23,16,59,8.80
2015,02,23,17,00,8.80
2015,02,23,17,01,8.80
2015,02,23,17,02,8.80
2015,02,23,17,03,8.80
2015,02,23,17,04,8.80
2015,02,23,17,05,8.80
2015,02,23,17,06,8.80
2015,02,23,17,07,8.80
2015,02,23,17,08,8.90
2015,02,23,17,09,8.90
2015,02,23,17,10,8.90
2015,02,23,17,11,8.90
2015,02,23,17,12,8.90
2015,02,23,17,13,9.00
2015,02,23,17,14,9.00
2015,02,23,17,15,9.00
2015,02,23,17,16,9.00
2015,02,23,17,17,9.10
2015,02,23,17,18,9.10
2015,02,23,17,19,9.10
2015,02,23,17,20,9.20
2015,02,23,17,21,9.20
2015,02,23,17,22,9.20
2015,02,23,17,23,9.20
2015,02,23,17,24,9.20
2015,02,23,17,25,9.20
2015,02,23,17,26,9.20
2015,02,23,17,27,9.10
2015,02,23,17,28,9.10
2015,02,23,17,29,9.10
2015,02,23,17,30,9.10
2015,02,23,17,31,9.00
2015,02,23,17,32,8.90
2015,02,23,17,33,8.90
2015,02,23,17,34,8.90
2015,02,23,17,35,8.80
2015,02,23,17,36,8.80
2015,02,23,17,37,8.80
2015,02,23,17,38,8.80
2015,02,23,17,39,8.80
2015,02,23,17,40,8.70
2015,02,23,17,41,8.70
2015,02,23,17,42,8.70
2015,02,23,17,43,8.60
2015,02,23,17,44,8.60
2015,02,23,17,45,8.60
2015,02,23,17,46,8.60
2015,02,23,17,47,8.60
2015,02,23,17,48,8.40
2015,02,23,17,49,8.40
2015,02,23,17,50,8.40
2015,02,23,17,51,8.40
2015,02,23,17,52,8.40
2015,02,23,17,53,8.40
2015,02,23,17,54,8.40
2015,02,23,17,55,8.40
2015,02,23,17,56,8.40
2015,02,23,17,57,8.30
2015,02,23,17,58,8.30
2015,02,23,17,59,8.30
2015,02,23,18,00,8.30
2015,02,23,18,01,8.30
2015,02,23,18,02,8.30
2015,02,23,18,03,8.30
2015,02,23,18,04,8.30
2015,02,23,18,05,8.30
2015,02,23,18,06,8.30
2015,02,23,18,07,8.30
2015,02,23,18,08,8.30
2015,02,23,18,09,8.30
2015,02,23,18,10,8.30
2015,02,23,18,11,8.30
2015,02,23,18,12,8.30
2015,02,23,18,13,8.30
2015,02,23,18,14,8.30
2015,02,23,18,15,8.30
2015,02,23,18,16,8.30
2015,02,23,18,17,8.30
2015,02,23,18,18,8.30
2015,02,23,18,19,8.30
2015,02,23,18,20,8.30
2015,02,23,18,21,8.30
2015,02,23,18,22,8.30
2015,02,23,18,23,8.30
2015,02,23,18,24,8.30
2015,02,23,18,25,8.30
2015,02,23,18,26,8.30
2015,02,23,18,27,8.30
2015,02,23,18,28,8.30
2015,02,23,18,29,8.20
2015,02,23,18,30,8.20
2015,02,23,18,31,8.30
2015,02,23,18,32,8.30
2015,02,23,18,33,8.30
2015,02,23,18,34,8.30
2015,02,23,18,35,8.30
2015,02,23,18,36,8.30
2015,02,23,18,37,8.30
2015,02,23,18,38,8.30
2015,02,23,18,39,8.30
2015,02,23,18,40,8.30
2015,02,23,18,41,8.30
2015,02,23,18,42,8.30
2015,02,23,18,43,8.30
2015,02,23,18,44,8.30
2015,02,23,18,45,8.30
2015,02,23,18,46,8.30
2015,02,23,18,47,8.30
2015,02,23,18,48,8.30
2015,02,23,18,49,8.30
2015,02,23,18,50,8.30
2015,02,23,18,51,8.30
2015,02,23,18,52,8.30
2015,02,23,18,53,8.30
2015,02,23,18,54,8.30
2015,02,23,18,55,8.30
2015,02,23,18,56,8.30
2015,02,23,18,57,8.30
2015,02,23,18,58,8.30
2015,02,23,18,59,8.30
2015,02,23,19,00,8.30
2015,02,23,19,01,8.30
2015,02,23,19,02,8.30
2015,02,23,19,03,8.30
2015,02,23,19,04,8.30
2015,02,23,19,05,8.30
2015,02,23,19,06,8.30
2015,02,23,19,07,8.30
2015,02,23,19,08,8.30
2015,02,23,19,09,8.30
2015,02,23,19,10,8.30
2015,02,23,19,11,8.30
2015,02,23,19,12,8.30
2015,02,23,19,13,8.30
2015,02,23,19,14,8.30
2015,02,23,19,15,8.30
2015,02,23,19,16,8.30
2015,02,23,19,17,8.30
2015,02,23,19,18,8.30
2015,02,23,19,19,8.30
2015,02,23,19,20,8.30
2015,02,23,19,21,8.30
2015,02,23,19,22,8.30
2015,02,23,19,23,8.30
2015,02,23,19,24,8.30
2015,02,23,19,25,8.40
2015,02,23,19,26,8.40
2015,02,23,19,27,8.40
2015,02,23,19,28,8.40
2015,02,23,19,29,8.40